| time (UTC) | temp F | wind direction | speed MPH | gust MPH | rain 1hr in | rain 24hr in | rain mn in | humidity % | barometer mb |
| 20260904091545 | 81 | 200 | 0.0 | 0.0 | 0.00 | 0.06 | 0.00 | 92 | 1012.6 |
| 20260904090047 | 81 | 200 | 0.0 | 0.0 | 0.00 | 0.06 | 0.00 | 92 | 1012.5 |
| 20260904084541 | 81 | 200 | 0.0 | 0.0 | 0.00 | 0.06 | 0.00 | 92 | 1012.6 |
| 20260904083040 | 81 | 200 | 0.0 | 0.0 | 0.00 | 0.06 | 0.00 | 91 | 1012.6 |
| 20260904081541 | 81 | 200 | 0.0 | 0.0 | 0.00 | 0.06 | 0.00 | 91 | 1012.6 |
| 20260904080041 | 81 | 200 | 0.0 | 0.0 | 0.00 | 0.06 | 0.00 | 90 | 1012.7 |
| 20260904074539 | 81 | 200 | 0.0 | 0.0 | 0.00 | 0.06 | 0.00 | 91 | 1012.7 |
| 20260904073039 | 81 | 200 | 0.0 | 0.0 | 0.00 | 0.06 | 0.00 | 90 | 1012.8 |
| 20260904071534 | 82 | 200 | 0.0 | 0.0 | 0.00 | 0.06 | 0.00 | 90 | 1012.7 |
| 20260904070044 | 82 | 200 | 0.0 | 0.0 | 0.00 | 0.06 | 0.00 | 90 | 1012.8 |
| 20260904064538 | 82 | 200 | 0.0 | 1.0 | 0.00 | 0.06 | 0.00 | 89 | 1012.9 |
| 20260904063035 | 82 | 221 | 0.0 | 0.0 | 0.00 | 0.06 | 0.00 | 89 | 1012.9 |
| 20260904061542 | 82 | 219 | 0.0 | 1.0 | 0.00 | 0.06 | 0.00 | 89 | 1012.9 |
| 20260904060027 | 82 | 221 | 0.0 | 1.0 | 0.00 | 0.06 | 0.00 | 90 | 1012.9 |
| 20260904054530 | 82 | 219 | 0.0 | 1.0 | 0.00 | 0.06 | 0.00 | 90 | 1013.0 |
| 20260904053020 | 82 | 219 | 0.0 | 1.0 | 0.00 | 0.06 | 0.00 | 91 | 1012.9 |
| 20260904051520 | 82 | 88 | 0.0 | 0.0 | 0.00 | 0.06 | 0.00 | 91 | 1013.0 |
| 20260904050020 | 82 | 88 | 0.0 | 0.0 | 0.00 | 0.06 | 0.00 | 91 | 1013.1 |
| 20260904044524 | 82 | 88 | 0.0 | 0.0 | 0.00 | 0.06 | 0.06 | 91 | 1013.1 |
| 20260904043017 | 82 | 89 | 0.0 | 0.0 | 0.00 | 0.06 | 0.06 | 90 | 1013.2 |
| 20260904041514 | 82 | 89 | 0.0 | 1.0 | 0.00 | 0.06 | 0.06 | 89 | 1013.1 |
| 20260904040015 | 82 | 63 | 0.0 | 0.0 | 0.00 | 0.06 | 0.06 | 89 | 1013.2 |
| 20260904034531 | 82 | 80 | 0.0 | 1.0 | 0.00 | 0.06 | 0.06 | 88 | 1013.1 |
| 20260904033012 | 82 | 63 | 0.0 | 1.0 | 0.00 | 0.06 | 0.06 | 88 | 1013.1 |
| 20260904031515 | 82 | 49 | 0.0 | 0.0 | 0.00 | 0.06 | 0.06 | 89 | 1013.2 |
| 20260904030011 | 83 | 49 | 0.0 | 1.0 | 0.00 | 0.06 | 0.06 | 89 | 1013.2 |
| 20260904024511 | 83 | 58 | 0.0 | 1.0 | 0.00 | 0.06 | 0.06 | 89 | 1013.1 |
| 20260904023010 | 83 | 87 | 0.0 | 0.0 | 0.00 | 0.06 | 0.06 | 89 | 1013.1 |
| 20260904021510 | 83 | 87 | 0.0 | 0.0 | 0.00 | 0.06 | 0.06 | 89 | 1012.9 |
| 20260904020010 | 83 | 67 | 0.0 | 1.0 | 0.00 | 0.06 | 0.06 | 88 | 1012.7 |
| 20260904014509 | 83 | 103 | 0.0 | 1.0 | 0.00 | 0.06 | 0.06 | 87 | 1012.5 |
| 20260904013009 | 83 | 75 | 0.0 | 1.0 | 0.00 | 0.06 | 0.06 | 87 | 1012.3 |
| 20260904011528 | 83 | 65 | 0.0 | 1.0 | 0.00 | 0.06 | 0.06 | 86 | 1012.2 |
| 20260904010008 | 83 | 64 | 0.0 | 0.0 | 0.00 | 0.06 | 0.06 | 87 | 1012.3 |
| 20260904004507 | 84 | 63 | 0.0 | 0.0 | 0.00 | 0.06 | 0.06 | 86 | 1012.2 |
| 20260904003007 | 84 | 59 | 0.0 | 0.0 | 0.00 | 0.06 | 0.06 | 86 | 1012.2 |
| 20260904001506 | 84 | 69 | 0.0 | 0.0 | 0.00 | 0.06 | 0.06 | 87 | 1012.4 |
| 20260904000006 | 84 | 61 | 0.0 | 1.0 | 0.00 | 0.06 | 0.06 | 87 | 1012.4 |
| 20260903234504 | 84 | 68 | 0.0 | 1.0 | 0.00 | 0.06 | 0.06 | 86 | 1012.4 |
| 20260903233015 | 84 | 75 | 0.0 | 2.0 | 0.00 | 0.06 | 0.06 | 86 | 1012.3 |
| 20260903231503 | 84 | 80 | 0.0 | 1.0 | 0.00 | 0.06 | 0.06 | 87 | 1012.2 |
| 20260903230002 | 84 | 72 | 0.0 | 1.0 | 0.00 | 0.06 | 0.06 | 87 | 1012.1 |
| 20260903224559 | 84 | 86 | 0.0 | 1.0 | 0.00 | 0.06 | 0.06 | 87 | 1012.4 |
| 20260903223058 | 84 | 52 | 0.0 | 1.0 | 0.00 | 0.06 | 0.06 | 88 | 1012.6 |
| 20260903221558 | 82 | 225 | 0.0 | 1.0 | 0.00 | 0.06 | 0.06 | 89 | 1012.5 |
| 20260903220112 | 82 | 262 | 0.0 | 0.0 | 0.00 | 0.06 | 0.06 | 90 | 1012.7 |
| 20260903214556 | 82 | 262 | 0.0 | 0.0 | 0.00 | 0.06 | 0.06 | 89 | 1012.9 |
| 20260903213059 | 82 | 262 | 0.0 | 0.0 | 0.00 | 0.06 | 0.06 | 90 | 1013.4 |
| 20260903211558 | 83 | 262 | 0.0 | 1.0 | 0.00 | 0.06 | 0.06 | 88 | 1013.4 |
| 20260903210104 | 83 | 99 | 0.0 | 1.0 | 0.00 | 0.06 | 0.06 | 92 | 1013.6 |
| 20260903204552 | 82 | 82 | 0.0 | 1.0 | 0.06 | 0.06 | 0.06 | 93 | 1013.5 |
| 20260903203113 | 81 | 83 | 0.0 | 1.0 | 0.06 | 0.06 | 0.06 | 93 | 1013.5 |
| 20260903201550 | 81 | 91 | 0.0 | 0.0 | 0.06 | 0.06 | 0.06 | 92 | 1013.0 |
| 20260903200050 | 82 | 79 | 0.0 | 3.0 | 0.06 | 0.06 | 0.06 | 85 | 1013.2 |
| 20260903194555 | 87 | 64 | 0.0 | 4.0 | 0.00 | 0.00 | 0.00 | 72 | 1013.6 |
| 20260903193048 | 91 | 41 | 1.0 | 10.0 | 0.00 | 0.00 | 0.00 | 74 | 1013.6 |
| 20260903191553 | 92 | 54 | 2.0 | 6.0 | 0.00 | 0.00 | 0.00 | 72 | 1013.0 |
| 20260903190047 | 91 | 86 | 1.0 | 6.0 | 0.00 | 0.00 | 0.00 | 74 | 1013.4 |
| 20260903184546 | 92 | 97 | 1.0 | 5.0 | 0.00 | 0.00 | 0.00 | 74 | 1013.5 |
| 20260903183046 | 91 | 36 | 0.0 | 5.0 | 0.00 | 0.00 | 0.00 | 73 | 1013.6 |
| 20260903181541 | 91 | 207 | 0.0 | 4.0 | 0.00 | 0.00 | 0.00 | 71 | 1013.7 |
| 20260903180040 | 90 | 248 | 1.0 | 3.0 | 0.00 | 0.00 | 0.00 | 71 | 1014.1 |
| 20260903174540 | 91 | 217 | 0.0 | 2.0 | 0.00 | 0.00 | 0.00 | 71 | 1014.4 |
| 20260903173038 | 90 | 216 | 0.0 | 5.0 | 0.00 | 0.00 | 0.00 | 73 | 1014.3 |
| 20260903171554 | 89 | 58 | 0.0 | 4.0 | 0.00 | 0.00 | 0.00 | 76 | 1014.5 |
| 20260903170034 | 89 | 221 | 0.0 | 0.0 | 0.00 | 0.00 | 0.00 | 78 | 1014.7 |
| 20260903164529 | 87 | 213 | 0.0 | 2.0 | 0.00 | 0.00 | 0.00 | 82 | 1014.8 |
| 20260903163024 | 85 | 293 | 0.0 | 1.0 | 0.00 | 0.00 | 0.00 | 86 | 1014.7 |
| 20260903161521 | 84 | 83 | 0.0 | 0.0 | 0.00 | 0.00 | 0.00 | 86 | 1014.5 |
| 20260903160030 | 83 | 86 | 0.0 | 1.0 | 0.00 | 0.00 | 0.00 | 87 | 1014.7 |
| 20260903154524 | 82 | 117 | 0.0 | 0.0 | 0.00 | 0.00 | 0.00 | 88 | 1014.7 |
| 20260903153019 | 81 | 117 | 0.0 | 0.0 | 0.00 | 0.00 | 0.00 | 87 | 1014.6 |
| 20260903151521 | 81 | 118 | 0.0 | 0.0 | 0.00 | 0.00 | 0.00 | 88 | 1014.5 |
| 20260903150025 | 80 | 117 | 0.0 | 0.0 | 0.00 | 0.00 | 0.00 | 87 | 1014.5 |
| 20260903144538 | 80 | 117 | 0.0 | 0.0 | 0.00 | 0.00 | 0.00 | 88 | 1014.5 |
| 20260903143025 | 80 | 117 | 0.0 | 0.0 | 0.00 | 0.00 | 0.00 | 87 | 1014.5 |
| 20260903141515 | 80 | 118 | 0.0 | 0.0 | 0.00 | 0.00 | 0.00 | 87 | 1014.9 |
| 20260903140020 | 80 | 129 | 0.0 | 0.0 | 0.00 | 0.00 | 0.00 | 86 | 1014.8 |
| 20260903134513 | 80 | 129 | 0.0 | 1.0 | 0.00 | 0.00 | 0.00 | 86 | 1014.7 |
| 20260903133012 | 80 | 129 | 0.0 | 1.0 | 0.00 | 0.00 | 0.00 | 87 | 1014.8 |
| 20260903131510 | 81 | 129 | 0.0 | 0.0 | 0.00 | 0.00 | 0.00 | 87 | 1014.7 |
| 20260903130009 | 81 | 129 | 0.0 | 1.0 | 0.00 | 0.00 | 0.00 | 89 | 1014.6 |
| 20260903124506 | 81 | 198 | 0.0 | 2.0 | 0.00 | 0.00 | 0.00 | 92 | 1014.5 |
| 20260903123005 | 81 | 217 | 0.0 | 0.0 | 0.00 | 0.00 | 0.00 | 94 | 1014.3 |
| 20260903121514 | 81 | 217 | 0.0 | 0.0 | 0.00 | 0.00 | 0.00 | 94 | 1013.7 |
| 20260903120010 | 81 | 218 | 0.0 | 0.0 | 0.00 | 0.00 | 0.00 | 94 | 1013.9 |
| 20260903114502 | 82 | 217 | 0.0 | 0.0 | 0.00 | 0.00 | 0.00 | 93 | 1013.8 |
| 20260903113142 | 82 | 217 | 0.0 | 0.0 | 0.00 | 0.00 | 0.00 | 92 | 1013.8 |
| 20260903111559 | 82 | 217 | 0.0 | 0.0 | 0.00 | 0.00 | 0.00 | 92 | 1013.6 |
| 20260903110105 | 83 | 217 | 0.0 | 1.0 | 0.00 | 0.00 | 0.00 | 91 | 1013.6 |
| 20260903104609 | 83 | 218 | 0.0 | 1.0 | 0.00 | 0.00 | 0.00 | 90 | 1013.5 |
| 20260903103058 | 83 | 213 | 0.0 | 0.0 | 0.00 | 0.00 | 0.00 | 90 | 1013.5 |
| 20260903101602 | 82 | 213 | 0.0 | 1.0 | 0.00 | 0.00 | 0.00 | 90 | 1013.4 |
| 20260903100056 | 82 | 220 | 0.0 | 0.0 | 0.00 | 0.00 | 0.00 | 90 | 1013.3 |
| 20260903094557 | 82 | 221 | 0.0 | 0.0 | 0.00 | 0.00 | 0.00 | 90 | 1013.3 |
| 20260903093053 | 82 | 221 | 0.0 | 0.0 | 0.00 | 0.00 | 0.00 | 90 | 1013.4 |